Location: *
(33.8649°S, 62.1526°E)
Time: 12:54:16
(UTC+00:00)

CZ-2C R/B - Pass Details

Date: 17 January 2021
Orbit: 668 x 784 km, 98.2° (Epoch: 02 March)

Event Time Altitude Azimuth Distance (km) Brightness Sun altitude
Exits shadow 23:12:05 25° 359° (N) 1,527 3.7 -19.2°
Maximum altitude 23:15:06 68° 281° (WNW) 821 2.4 -18.7°
Drops below altitude 10° 23:20:06 10° 198° (SSW) 2,272 5.2 -18.0°
Sets 23:22:23 0° 195° (SSW) 3,184 6.1 -17.6°
